• In Österreich
  • Länderverzeichnis
  • Für 7 Tage
  • Wassertemperatur
  • Satellitenkarten
  • Wetterkarte
  • News
  • Widgets
  • user-avatar
    Anmelden

    Stündliche Wetter San Juan

    Heute, 17 Dezember, Sonntag

    Zeit Temperatur Niederschläge Wind Luftdruck Luftfeuchtigkeit
    00:00 +35°C° 0,2 mm 8 m/S 701 mmHg 21%
    01:00 +34°C° 0 mm 8 m/S 701 mmHg 21%
    02:00 +31°C° 0 mm 9 m/S 702 mmHg 23%
    03:00 +28°C° 0 mm 11 m/S 704 mmHg 25%
    04:00 +24°C° 0 mm 13 m/S 705 mmHg 27%
    05:00 +23°C° 0 mm 11 m/S 706 mmHg 27%
    06:00 +22°C° 0 mm 10 m/S 707 mmHg 27%
    07:00 +21°C° 0 mm 7 m/S 709 mmHg 24%
    08:00 +22°C° 0 mm 7 m/S 709 mmHg 22%
    09:00 +22°C° 0 mm 6 m/S 709 mmHg 21%
    10:00 +23°C° 0 mm 5 m/S 708 mmHg 19%
    11:00 +25°C° 0 mm 5 m/S 708 mmHg 18%
    12:00 +26°C° 0 mm 5 m/S 708 mmHg 17%
    13:00 +27°C° 0 mm 5 m/S 707 mmHg 16%
    14:00 +28°C° 0 mm 5 m/S 707 mmHg 16%
    15:00 +28°C° 0 mm 4 m/S 707 mmHg 15%
    16:00 +28°C° 0 mm 4 m/S 706 mmHg 15%
    17:00 +27°C° 0 mm 4 m/S 707 mmHg 15%
    18:00 +27°C° 0 mm 3 m/S 707 mmHg 16%
    19:00 +26°C° 0 mm 3 m/S 707 mmHg 16%
    20:00 +26°C° 0 mm 3 m/S 708 mmHg 17%
    21:00 +25°C° 0 mm 2 m/S 708 mmHg 17%
    22:00 +25°C° 0 mm 2 m/S 708 mmHg 17%
    23:00 +24°C° 0 mm 2 m/S 708 mmHg 18%

    Morgen, 18 Dezember, Montag

    Zeit Temperatur Niederschläge Wind Luftdruck Luftfeuchtigkeit
    00:00 +24°C° 0 mm 1 m/S 707 mmHg 19%
    01:00 +23°C° 0 mm 1 m/S 707 mmHg 19%
    02:00 +23°C° 0 mm 1 m/S 706 mmHg 20%
    03:00 +23°C° 0 mm 1 m/S 706 mmHg 21%
    04:00 +22°C° 0 mm 1 m/S 706 mmHg 23%
    05:00 +24°C° 0 mm 2 m/S 706 mmHg 22%
    06:00 +25°C° 0 mm 3 m/S 706 mmHg 21%
    07:00 +27°C° 0 mm 4 m/S 706 mmHg 20%
    08:00 +28°C° 0 mm 4 m/S 706 mmHg 18%
    09:00 +30°C° 0 mm 4 m/S 705 mmHg 16%
    10:00 +33°C° 0 mm 4 m/S 705 mmHg 15%
    11:00 +35°C° 0 mm 4 m/S 704 mmHg 14%
    12:00 +36°C° 0 mm 4 m/S 704 mmHg 13%
    13:00 +37°C° 0 mm 4 m/S 703 mmHg 12%
    14:00 +37°C° 0 mm 4 m/S 703 mmHg 12%
    15:00 +37°C° 0 mm 3 m/S 703 mmHg 12%
    16:00 +37°C° 0 mm 3 m/S 702 mmHg 13%
    17:00 +36°C° 0 mm 3 m/S 703 mmHg 15%
    18:00 +35°C° 0 mm 3 m/S 703 mmHg 17%
    19:00 +33°C° 0 mm 4 m/S 704 mmHg 19%
    20:00 +33°C° 0 mm 4 m/S 704 mmHg 21%
    21:00 +32°C° 0 mm 4 m/S 705 mmHg 24%
    22:00 +30°C° 0 mm 4 m/S 705 mmHg 27%
    23:00 +29°C° 0 mm 4 m/S 705 mmHg 28%

    übermorgen, 19 Dezember, Dienstag

    Zeit Temperatur Niederschläge Wind Luftdruck Luftfeuchtigkeit
    00:00 +29°C° 0 mm 3 m/S 704 mmHg 30%
    01:00 +28°C° 0 mm 3 m/S 704 mmHg 31%
    02:00 +28°C° 0 mm 3 m/S 704 mmHg 33%
    03:00 +27°C° 0 mm 3 m/S 704 mmHg 35%
    04:00 +26°C° 0 mm 3 m/S 704 mmHg 37%
    05:00 +27°C° 0 mm 2 m/S 705 mmHg 34%
    06:00 +28°C° 0 mm 2 m/S 705 mmHg 31%
    07:00 +30°C° 0 mm 2 m/S 706 mmHg 28%
    08:00 +31°C° 0 mm 2 m/S 706 mmHg 26%
    09:00 +32°C° 0 mm 2 m/S 706 mmHg 23%
    10:00 +34°C° 0 mm 2 m/S 706 mmHg 20%
    11:00 +35°C° 0 mm 3 m/S 705 mmHg 19%
    12:00 +36°C° 0 mm 3 m/S 704 mmHg 18%
    13:00 +37°C° 0 mm 4 m/S 704 mmHg 17%
    14:00 +37°C° 0 mm 4 m/S 703 mmHg 16%
    15:00 +37°C° 0 mm 3 m/S 703 mmHg 16%
    16:00 +38°C° 0 mm 3 m/S 703 mmHg 16%
    17:00 +37°C° 0 mm 3 m/S 703 mmHg 17%
    18:00 +36°C° 0 mm 3 m/S 703 mmHg 18%
    19:00 +35°C° 0 mm 3 m/S 704 mmHg 20%
    20:00 +34°C° 0 mm 3 m/S 704 mmHg 25%
    21:00 +33°C° 0 mm 4 m/S 705 mmHg 30%
    22:00 +32°C° 0 mm 4 m/S 705 mmHg 35%
    23:00 +30°C° 0 mm 4 m/S 705 mmHg 37%

    20 Dezember, Mittwoch

    Zeit Temperatur Niederschläge Wind Luftdruck Luftfeuchtigkeit
    00:00 +30°C° 0 mm 4 m/S 704 mmHg 40%
    01:00 +29°C° 0 mm 4 m/S 704 mmHg 43%
    02:00 +29°C° 0 mm 4 m/S 704 mmHg 43%
    03:00 +28°C° 0 mm 3 m/S 704 mmHg 44%
    04:00 +28°C° 0 mm 3 m/S 704 mmHg 44%
    05:00 +29°C° 0 mm 3 m/S 704 mmHg 39%
    06:00 +30°C° 0 mm 3 m/S 704 mmHg 34%
    07:00 +33°C° 0 mm 3 m/S 704 mmHg 29%
    08:00 +34°C° 0 mm 3 m/S 704 mmHg 26%
    09:00 +35°C° 0 mm 3 m/S 703 mmHg 23%
    10:00 +37°C° 0 mm 3 m/S 703 mmHg 21%
    11:00 +38°C° 0 mm 3 m/S 702 mmHg 19%
    12:00 +39°C° 0 mm 3 m/S 702 mmHg 17%
    13:00 +40°C° 0 mm 3 m/S 701 mmHg 16%
    14:00 +41°C° 0 mm 4 m/S 701 mmHg 16%
    15:00 +41°C° 0 mm 4 m/S 700 mmHg 15%
    16:00 +41°C° 0 mm 4 m/S 700 mmHg 15%
    17:00 +40°C° 0 mm 4 m/S 700 mmHg 17%
    18:00 +38°C° 0 mm 4 m/S 700 mmHg 20%
    19:00 +37°C° 0 mm 4 m/S 701 mmHg 22%
    20:00 +36°C° 0 mm 4 m/S 701 mmHg 26%
    21:00 +35°C° 0 mm 5 m/S 702 mmHg 29%
    22:00 +34°C° 0 mm 5 m/S 702 mmHg 33%
    23:00 +33°C° 0 mm 5 m/S 702 mmHg 36%

    21 Dezember, Donnerstag

    Zeit Temperatur Niederschläge Wind Luftdruck Luftfeuchtigkeit
    00:00 +33°C° 0 mm 4 m/S 702 mmHg 39%
    01:00 +32°C° 0 mm 4 m/S 701 mmHg 42%
    02:00 +30°C° 0 mm 3 m/S 701 mmHg 44%
    03:00 +30°C° 0 mm 3 m/S 702 mmHg 45%
    04:00 +30°C° 0 mm 2 m/S 702 mmHg 47%
    05:00 +29°C° 0 mm 4 m/S 702 mmHg 48%
    06:00 +29°C° 0 mm 6 m/S 703 mmHg 49%
    07:00 +29°C° 0 mm 8 m/S 703 mmHg 50%
    08:00 +31°C° 0,1 mm 8 m/S 703 mmHg 48%
    09:00 +32°C° 0,1 mm 8 m/S 703 mmHg 45%
    10:00 +33°C° 0,1 mm 8 m/S 703 mmHg 42%
    11:00 +33°C° 0,3 mm 7 m/S 702 mmHg 41%
    12:00 +34°C° 0,3 mm 6 m/S 702 mmHg 39%
    13:00 +35°C° 0,3 mm 5 m/S 701 mmHg 37%
    14:00 +35°C° 0,8 mm 4 m/S 701 mmHg 37%
    15:00 +35°C° 0,8 mm 4 m/S 700 mmHg 36%
    16:00 +35°C° 0,8 mm 3 m/S 700 mmHg 36%
    17:00 +35°C° 0,8 mm 3 m/S 700 mmHg 38%
    18:00 +34°C° 0,8 mm 2 m/S 701 mmHg 40%
    19:00 +32°C° 0,8 mm 2 m/S 701 mmHg 42%
    20:00 +32°C° 0,6 mm 2 m/S 701 mmHg 44%
    21:00 +31°C° 0,6 mm 1 m/S 701 mmHg 46%
    22:00 +30°C° 0,6 mm 1 m/S 701 mmHg 48%
    23:00 +30°C° 0,4 mm 1 m/S 701 mmHg 49%

    22 Dezember, Freitag

    Zeit Temperatur Niederschläge Wind Luftdruck Luftfeuchtigkeit
    00:00 +29°C° 0,4 mm 1 m/S 700 mmHg 51%
    01:00 +29°C° 0,4 mm 1 m/S 700 mmHg 52%
    02:00 +29°C° 0,1 mm 1 m/S 700 mmHg 53%
    03:00 +28°C° 0,1 mm 1 m/S 700 mmHg 54%
    04:00 +28°C° 0,1 mm 1 m/S 700 mmHg 55%
    05:00 +29°C° 0,1 mm 1 m/S 700 mmHg 52%
    06:00 +30°C° 0,1 mm 1 m/S 701 mmHg 48%
    07:00 +30°C° 0,1 mm 1 m/S 701 mmHg 44%
    08:00 +32°C° 0,2 mm 2 m/S 701 mmHg 41%
    09:00 +34°C° 0,2 mm 3 m/S 701 mmHg 38%
    10:00 +35°C° 0,2 mm 4 m/S 701 mmHg 34%
    11:00 +36°C° 0,4 mm 5 m/S 701 mmHg 34%
    12:00 +36°C° 0,4 mm 6 m/S 700 mmHg 33%
    13:00 +36°C° 0,4 mm 6 m/S 700 mmHg 33%
    14:00 +36°C° 0,8 mm 6 m/S 700 mmHg 33%
    15:00 +36°C° 0,8 mm 6 m/S 700 mmHg 33%
    16:00 +36°C° 0,8 mm 6 m/S 700 mmHg 34%
    17:00 +35°C° 0,7 mm 6 m/S 700 mmHg 35%
    18:00 +34°C° 0,7 mm 6 m/S 701 mmHg 36%
    19:00 +32°C° 0,7 mm 7 m/S 702 mmHg 38%
    20:00 +32°C° 0,6 mm 7 m/S 702 mmHg 39%
    21:00 +30°C° 0,6 mm 7 m/S 703 mmHg 40%
    22:00 +29°C° 0,6 mm 7 m/S 703 mmHg 42%
    23:00 +28°C° 0,1 mm 7 m/S 703 mmHg 43%
    Mehr zeigen